Location: Maiden
(35.5760°N, 81.2120°W)
Time: 03:25:15
(UTC-04:00)

Vanguard 2 - Pass Details

Date: 07 August 2020
Orbit: 553 x 2937 km, 32.9° (Epoch: 20 September)

Event Time Altitude Azimuth Distance (km) Brightness Sun altitude
Rises 18:59:45 0° 198° (SSW) 6,658 12.4 15.4°
Reaches altitude 10° 19:05:43 10° 185° (S) 5,747 12.0 14.2°
Maximum altitude 19:17:48 23° 142° (SE) 4,611 11.1 11.8°
Drops below altitude 10° 19:28:31 10° 98° (E) 5,102 11.1 9.7°
Sets 19:33:14 0° 85° (E) 5,774 11.4 8.7°
